{"data":{"norad_id":65389,"intl_designator":"2025-191L","name":"STARLINK-34993","alt_names":[],"object_type":"PAYLOAD","status":"ACTIVE","operator":null,"country":"US","launch_date":"2025-08-30","launch_site_code":"AFWTR","launch_vehicle":null,"mission":null,"orbit_class":"UNKNOWN","rcs_meters":null,"size_class":null,"mass_kg":null,"dimensions":null,"purposes":["comms"],"wikipedia_slug":null,"has_3d_model":false,"image_url":null,"decayed_at":null,"tle_current":{"epoch":"2026-09-20T14:14:34.247616Z","epoch_age_seconds":106860,"freshness":"FRESH","line1":"1 65389U 25191L   26263.59345194 -.00006394  00000+0 -19615-3 0  9996","line2":"2 65389  97.2840 129.6261 0002760  95.8237 264.3320 15.33400476 59657","mean_motion":15.33400476,"eccentricity":0.000276,"inclination_deg":97.284,"raan_deg":129.6261,"arg_perigee_deg":95.8237,"mean_anomaly_deg":264.332,"bstar":-0.00019615,"rev_number":5965,"period_min":93.908931328648,"perigee_km":463.78675749088,"apogee_km":467.56454207356,"semimajor_km":6843.8126497822,"source":"CELESTRAK","updated_at":"2026-09-21T09:00:35.599038Z"}}}